Regional Weather Roundup
Issued by NWS

Home | Current Version | Previous Version | Text Only | Print | Product List | Glossary Off
Versions: 1 2 3 4 5 6 7 8 9 10 11 12 13 14 15 16 17 18 19 20 21 22 23 24 25 26 27 28 29 30 31 32 33 34 35 36 37 38 39 40 41 42 43 44 45 46 47 48 49 50

000
ASUS43 KOAX 222002
RWRNE

WEATHER ROUNDUP FOR NEBRASKA
NATIONAL WEATHER SERVICE OMAHA NE
300 PM CDT TUE AUG 22 2017

NOTES: SATELLITE DATA IS BEING USED TO AUGMENT CLOUD COVER ABOVE
       12000 FEET.
       "FAIR" INDICATES FEW OR NO CLOUDS BELOW 12,000 FEET WITH NO
       SIGNIFICANT WEATHER AND/OR OBSTRUCTIONS TO VISIBILITY.


NEZ001>004-019>022-054>056-222100-
NEBRASKA PANHANDLE

CITY           SKY/WX    TMP DP  RH WIND       PRES   REMARKS
SCOTTSBLUFF    SUNNY     82  48  30 S15       30.23F
ALLIANCE       SUNNY     77  44  30 S16       30.25F
CHADRON        SUNNY     83  43  24 S15G22    30.19F
GORDON         FAIR      81  42  25 S9        30.23F
KIMBALL        SUNNY     78  51  38 S15G21    30.30F
SIDNEY         SUNNY     80  44  27 S10G21    30.29F
$$

NEZ057>060-069>072-079>082-222100-
SOUTHWEST NEBRASKA

CITY           SKY/WX    TMP DP  RH WIND       PRES   REMARKS
NORTH PLATTE   SUNNY     77  51  40 VRB6      30.25F
IMPERIAL       SUNNY     79  45  29 SE12      30.26F
LEXINGTON      SUNNY     75  53  46 SE7       30.25F
MCCOOK         SUNNY     80  51  36 CALM      30.25F
OGALLALA       SUNNY     78  46  31 SE9       30.27S
$$

NEZ005>010-023>029-035>040-094-222100-
NORTH CENTRAL NEBRASKA

CITY           SKY/WX    TMP DP  RH WIND       PRES   REMARKS
VALENTINE      SUNNY     79  42  26 VRB3      30.23F
AINSWORTH      SUNNY     73  47  39 CALM      30.24F
BROKEN BOW     SUNNY     76  49  38 VRB3      30.24F
O`NEILL        SUNNY     73  49  41 N5        30.23F
ORD            SUNNY     76  42  29 CALM      30.22F
THEDFORD       SUNNY     79  47  32 SE7       30.26S
$$

NEZ041-046>049-061>064-073>077-083>087-222100-
SOUTH CENTRAL NEBRASKA

CITY           SKY/WX    TMP DP  RH WIND       PRES   REMARKS
GRAND ISLAND   SUNNY     76  48  37 N5        30.23F
AURORA         SUNNY     73  51  45 N8        30.22F
HASTINGS       SUNNY     76  49  38 NE7       30.24F
HEBRON         SUNNY     79  48  33 N10G16    30.20S
HOLDREGE       SUNNY     73  49  43 E3        30.25F
KEARNEY        SUNNY     75  49  39 NW6       30.25F
$$

NEZ011>018-030>034-042>045-222100-
NORTHEAST NEBRASKA

CITY           SKY/WX    TMP DP  RH WIND       PRES   REMARKS
NORFOLK        SUNNY     74  51  44 N9        30.19F
ALBION         SUNNY     74  51  45 N6        30.22F
BLAIR          SUNNY     74  52  46 N9        30.18F
COLUMBUS       SUNNY     73  52  47 N12       30.21F
FREMONT        SUNNY     74  50  43 N7        30.19F
TEKAMAH        SUNNY     75  50  41 N12       30.17F
WAYNE          SUNNY     73  46  37 N8G16     30.20S
$$

NEZ050>053-065>068-078-088>093-222100-
SOUTHEAST NEBRASKA

CITY           SKY/WX    TMP DP  RH WIND       PRES   REMARKS
LINCOLN        SUNNY     77  53  43 N10       30.20F
OMAHA EPPLEY   MOSUNNY   76  50  40 N10       30.17S
BEATRICE       SUNNY     76  53  44 N9        30.19S
FALLS CITY     SUNNY     76  52  43 NW14G20   30.14F
NEBRASKA CITY  SUNNY     75  53  45 N8        30.17F
PLATTSMOUTH    SUNNY     75  45  33 N12       30.17F
$$

NEZ044-045-051>053-067-222100-
OMAHA AREA

CITY           SKY/WX    TMP DP  RH WIND       PRES   REMARKS
OMAHA EPPLEY   MOSUNNY   76  50  40 N10       30.17S
BLAIR          SUNNY     74  52  46 N9        30.18F
FREMONT        SUNNY     74  50  43 N7        30.19F
MILLARD        SUNNY     76  52  42 NW8       30.17F
OFFUTT AFB     SUNNY     76  47  35 N12G17    30.16F
PLATTSMOUTH    SUNNY     75  45  33 N12       30.17F
WAHOO          FAIR      74  53  48 N8        30.19S
$$




USA.gov is the U.S. government's official web portal to all federal, state and local government web resources and services.